User: anonymous   Login
Location: Unspecified
(0.0000°N, 0.0000°E)
Time: 02:09:59
(UTC+00:00)
Language:

STARLINK-5998 - Orbit

View from above orbital plane
View from above orbital plane
View from above satellite
View from above satellite

Ground track
Ground track

The orbit is defined by the following mean orbital elements,

1 56468U          26145.41734108 +.00000000 +00000-0 +66337-4 0 00007
2 56468  69.9988 310.8129 0002823 266.9844  93.0992 14.98338451    06
Epoch (UTC): 25 May 2026 10:00:58
Eccentricity: 0.0002823
inclination: 69.9988°
perigee height: 570 km
apogee height: 574 km
right ascension of ascending node: 310.8129°
argument of perigee: 266.9844°
revolutions per day: 14.98338451
mean anomaly at epoch: 93.0992°

The dashed part of the orbit path shows where the satellite is in the earth's shadow,  

DLR